#timestamp,LO_Frequency,Hit,StdDev 
1528092015.8,286047002.6,N
1528092035.7,286047002.1,N
1528092055.5,286047001.4,N
1528092075.3,286046999.8,N
1528092095.2,286047003.5,N
1528092115.0,286047004.1,Y
1528092115.9,286047004.1,P
1528092135.8,286047003.6,N
1528092155.6,286047001.6,N
1528092175.4,286047003.6,N
1528092195.3,286047002.7,N
1528092215.1,286047000.5,N
1528092235.8,286047001.0,N
1528092255.7,286047000.4,N
1528092275.5,286047001.5,N
1528092295.4,286047004.2,Y
1528092315.2,286047000.5,P
1528092335.0,286047001.0,N
1528092335.9,286047001.0,N
1528092355.8,286046998.9,N
1528092375.6,286046997.1,N
1528092395.5,286046996.8,N
1528092415.3,286046997.1,N
1528092435.1,286046998.4,N
1528092455.9,286046998.8,N
1528092475.7,286046996.5,N
1528092495.5,286046999.0,N
1528092515.4,286046998.5,N
1528092535.2,286046999.8,N
1528092555.1,286047001.9,N
1528092556.0,286047001.9,N
1528092575.8,286047002.3,N
1528092595.6,286047002.5,N
1528092615.5,286047000.6,N
1528092635.3,286046999.3,N
1528092655.1,286047001.2,N
1528092675.9,286047000.7,N
1528092695.7,286046999.3,N
1528092715.6,286046996.6,N
1528092735.4,286046997.1,N
1528092755.2,286046997.3,N
1528092775.1,286046999.2,N
1528092776.0,286046999.2,N
1528092795.8,286046996.6,N
1528092815.6,286046999.2,N
1528092835.5,286046998.2,N
1528092855.3,286046999.2,N
1528092875.2,286046996.7,N
1528092895.9,286046996.9,N
1528092915.7,286046999.2,N
1528092935.6,286046996.6,N
1528092955.4,286046997.7,N
1528092975.2,286046999.1,N
1528092995.1,286046996.8,N
1528092996.0,286046996.8,N
1528093015.8,286046997.1,N
1528093035.7,286046998.6,N
1528093055.5,286046998.3,N
1528093075.3,286046999.2,N
1528093095.2,286046998.4,N
1528093115.0,286046999.6,N
1528093115.9,286046999.6,N
1528093135.8,286046999.5,N
1528093155.6,286046996.5,N
1528093175.4,286046998.6,N
1528093195.3,286046999.0,N
1528093215.1,286046996.6,N
1528093235.8,286046997.2,N
1528093255.7,286046997.7,N
1528093275.5,286046997.1,N
1528093295.4,286046998.4,N
1528093315.2,286046998.8,N
1528093335.0,286046998.2,N
1528093335.9,286046998.2,N
1528093355.8,286046998.3,N
1528093375.6,286046999.1,N
1528093395.5,286046996.5,Y
1528093415.3,286046999.8,P
1528093435.1,286047002.8,P
1528093455.9,286047000.4,N
1528093475.7,286046998.4,N
1528093495.5,286047000.7,N
1528093515.4,286047000.9,N
1528093535.2,286047000.4,N
1528093555.1,286047001.9,N
1528093556.0,286047001.9,N
1528093575.8,286047002.8,N
1528093595.6,286047001.9,N
1528093615.5,286047002.2,N
1528093635.3,286047001.6,N
1528093655.1,286046999.8,N
1528093675.9,286047000.2,N
1528093695.7,286047002.4,N
1528093715.6,286047000.0,N
1528093735.4,286047002.6,N
1528093755.2,286046999.9,N
1528093775.1,286047002.8,N
1528093776.0,286047002.8,N
1528093795.8,286046998.6,N
1528093815.6,286047000.5,N
1528093835.5,286046999.3,N
1528093855.3,286046998.5,N
1528093875.2,286046998.4,N
1528093895.9,286047000.9,N
1528093915.7,286047000.9,N
1528093935.6,286046999.4,N
1528093955.4,286047000.0,N
1528093975.2,286046998.3,N
1528093995.1,286047000.1,N
1528093996.0,286047000.1,N
1528094015.8,286046999.9,N
1528094035.7,286046999.9,N
1528094055.5,286047001.9,N
1528094075.3,286047002.8,N
1528094095.2,286047000.8,N
1528094115.0,286047000.9,N
1528094115.9,286047000.9,N
1528094135.8,286047000.5,N
1528094155.6,286047001.1,N
1528094175.4,286046998.5,N
1528094195.3,286046998.5,N
1528094215.1,286046999.1,N
1528094235.8,286047001.0,N
1528094255.7,286046999.0,N
1528094275.5,286046999.4,N
1528094295.4,286046998.9,N
1528094315.2,286046998.3,N
1528094335.0,286047000.7,N
1528094335.9,286047000.7,N
1528094355.8,286047000.2,N
1528094375.6,286046998.3,N
1528094395.5,286046998.6,N
1528094415.3,286046999.4,N
1528094435.1,286047002.7,N
1528094455.9,286046999.9,N
1528094475.7,286047001.2,N
1528094495.5,286047001.9,N
1528094515.4,286047001.8,N
1528094535.2,286047003.2,N
1528094555.1,286047001.9,N
1528094556.0,286047001.9,N
1528094575.8,286047001.4,N
1528094595.6,286047003.9,N
1528094615.5,286047001.8,N
1528094635.3,286047002.0,N
1528094655.1,286047002.9,N
1528094675.9,286047002.9,N
1528094695.7,286047005.1,Y
1528094715.6,286047003.5,P
1528094735.4,286047004.8,P
1528094755.2,286047003.0,N
1528094775.1,286047005.6,Y
1528094776.0,286047005.6,P
1528094795.8,286047002.5,N
1528094815.7,286047001.7,N
1528094835.5,286047002.4,N
1528094855.3,286047002.6,N
1528094875.2,286047000.1,N
1528094895.0,286046998.6,N
1528094895.9,286046998.6,N
1528094915.7,286047000.4,N
1528094935.6,286047000.9,N
1528094955.4,286046998.5,N
1528094975.3,286046998.2,N
1528094995.1,286046998.6,N
1528094996.0,286046998.6,N
1528095015.8,286046996.7,N
1528095035.7,286046998.7,N
1528095055.5,286046999.6,N
1528095075.3,286046996.9,N
1528095095.2,286046999.1,N
1528095115.0,286046999.0,N
1528095115.9,286046999.0,N
1528095135.8,286047000.6,N
1528095155.6,286046996.6,N
1528095175.5,286046998.9,N
1528095195.3,286046998.8,N
1528095215.1,286046998.2,N
1528095235.9,286047000.6,N
1528095255.7,286046999.1,N
1528095275.6,286046996.7,N
1528095295.4,286046999.3,N
1528095315.2,286046996.7,N
1528095335.1,286046997.3,N
1528095336.0,286046997.3,N
1528095355.8,286046998.0,N
1528095375.7,286046995.9,N
1528095395.5,286046995.4,Y
1528095415.3,286046997.4,P
1528095435.2,286046995.4,P
1528095455.0,286046997.6,N
1528095455.9,286046997.6,N
1528095475.7,286046995.5,Y
1528095495.6,286046998.7,P
1528095515.4,286047000.9,N
1528095535.3,286047000.8,N
1528095555.1,286047002.4,N
1528095556.0,286047002.4,N
1528095575.8,286046998.2,N
1528095595.7,286046999.5,N
